Salina, KS

10:33 AM CST on December 06, 2016 (GMT -0600)
Salina Municipal

Weather History for KSLN - March, 2015

Change the Weather History Date:

Sunday, March 8, 2015

  Actual Average Record
Temperature  
Mean Temperature 54 °F 43 °F  
Max Temperature 72 °F 54 °F 78 °F (1970)
Min Temperature 36 °F 32 °F -1 °F (1967)
Degree Days  
Heating Degree Days 11 22  
Month to date heating degree days 217 188  
Since 1 July heating degree days 4046 4029  
Cooling Degree Days 0 0  
Month to date cooling degree days 0 0  
Year to date cooling degree days 0 0  
Growing Degree Days 4 (Base 50)    
Moisture  
Dew Point 33 °F    
Average Humidity 50    
Maximum Humidity 76    
Minimum Humidity 23    
Precipitation  
Precipitation 0.00 in 0.06 in 1.04 in (1973)
Month to date precipitation 0.00 0.49  
Year to date precipitation 1.44 2.29  
Sea Level Pressure  
Sea Level Pressure 30.06 in    
Wind  
Wind Speed 9 mph (WNW)    
Max Wind Speed 21 mph    
Max Gust Speed 24 mph    
Visibility 10 miles    
Events      
T = Trace of Precipitation, MM = Missing Value Source: NWS Daily Summary

Daily Weather History Graph

Daily Weather History Graph

Search for Another Location

Airport or City:

Trip Planner

Search our weather history database for the weather conditions in past years. The results will help you decide how hot, cold, wet, or windy it might be!

Date:

Astronomy

Mar. 08, 2015 Rise Set
Actual Time 7:52 AM CDT 7:30 PM CDT
Civil Twilight 7:26 AM CDT 7:57 PM CDT
Nautical Twilight 6:55 AM CDT 8:27 PM CDT
Astronomical Twilight 6:24 AM CDT 8:58 PM CDT
Moon 10:27 PM CDT (3/8) 9:14 AM CDT (3/8)
Length of Visible Light 12h 30m
Length of Day
11h 37m
Waning Gibbous, 92% of the Moon is Illuminated
Mar 8
Waning Gibbous
Mar 13
Last Quarter
Mar 20
New
Mar 27
First Quarter
Apr 4
Full

Hourly Weather History & Observations

Time (CDT) Temp. Windchill Dew Point Humidity Pressure Visibility Wind Dir Wind Speed Gust Speed Precip Events Conditions
12:53 AM 44.1 °F 40.8 °F 32.0 °F 63% 30.09 in 10.0 mi South 5.8 mph - N/A   Clear
1:53 AM 43.0 °F 38.2 °F 32.0 °F 65% 30.09 in 10.0 mi South 8.1 mph - N/A   Clear
3:53 AM 39.9 °F 36.7 °F 30.9 °F 70% 30.07 in 10.0 mi South 4.6 mph - N/A   Clear
4:53 AM 39.0 °F 34.8 °F 30.9 °F 73% 30.05 in 10.0 mi South 5.8 mph - N/A   Clear
5:53 AM 37.0 °F 31.6 °F 30.0 °F 76% 30.06 in 10.0 mi South 6.9 mph - N/A   Clear
6:53 AM 37.4 °F 32.8 °F 30.2 °F 75% 30.06 in 10.0 mi South 5.8 mph - N/A   Clear
7:53 AM 37.9 °F 35.5 °F 30.9 °F 76% 30.06 in 10.0 mi South 3.5 mph - N/A   Clear
8:53 AM 41.0 °F 35.8 °F 34.0 °F 76% 30.06 in 10.0 mi South 8.1 mph - N/A   Clear
9:53 AM 48.9 °F - 36.0 °F 61% 30.07 in - South 5.8 mph - N/A   Clear
10:53 AM 55.0 °F - 36.0 °F 49% 30.07 in 10.0 mi SW 9.2 mph - N/A   Clear
11:53 AM 57.9 °F - 36.0 °F 44% 30.08 in 10.0 mi West 5.8 mph - N/A   Clear
12:53 PM 64.9 °F - 37.0 °F 36% 30.06 in 10.0 mi Variable 5.8 mph - N/A   Clear
1:53 PM 64.9 °F - 36.0 °F 34% 30.04 in - NE 5.8 mph - N/A   Clear
2:53 PM 69.1 °F - 36.0 °F 30% 30.00 in - Variable 3.5 mph - N/A   Clear
3:53 PM 70.0 °F - 34.0 °F 27% 29.99 in 10.0 mi NNW 11.5 mph - N/A   Clear
4:53 PM 70.0 °F - 30.9 °F 24% 30.00 in 10.0 mi NNW 9.2 mph - N/A   Clear
5:53 PM 66.9 °F - 28.9 °F 24% 30.00 in 10.0 mi North 15.0 mph - N/A   Clear
6:53 PM 62.1 °F - 30.9 °F 31% 30.03 in - North 19.6 mph - N/A   Clear
7:53 PM 57.0 °F - 32.0 °F 39% 30.07 in - North 13.8 mph - N/A   Clear
8:53 PM 53.1 °F - 32.0 °F 45% 30.09 in 10.0 mi North 15.0 mph - N/A   Clear
9:53 PM 50.0 °F - 32.0 °F 50% 30.11 in 10.0 mi NNE 10.4 mph - N/A   Clear
10:53 PM 45.0 °F 40.6 °F 30.9 °F 58% 30.12 in - North 8.1 mph - N/A   Clear
11:53 PM 45.0 °F 40.6 °F 32.0 °F 60% 30.13 in - NNE 8.1 mph - N/A   Clear
12:53 AM 39.9 °F 33.9 °F 30.0 °F 68% 30.12 in - NNW 9.2 mph - N/A   Clear